Time,TemperatureF,DewpointF,PressureIn,WindDirection,WindDirectionDegrees,WindSpeedMPH,WindSpeedGustMPH,Humidity,HourlyPrecipIn,Conditions,Clouds,dailyrainin,SoftwareType,DateUTC
2013-06-12 00:11:00,81.3,81.0,29.85,South,180,0.0,-999.0,99,-99.99,,,0.00,Acu-Link.com,2013-06-12 05:11:00,
2013-06-12 00:26:00,80.6,80.3,29.84,SSE,157,0.0,-999.0,99,-99.99,,,0.00,Acu-Link.com,2013-06-12 05:26:00,
2013-06-12 00:41:00,80.4,80.1,29.85,SW,225,2.7,-999.0,99,-99.99,,,0.00,Acu-Link.com,2013-06-12 05:41:00,
2013-06-12 00:57:00,80.6,80.3,29.84,SW,225,3.2,-999.0,99,-99.99,,,0.00,Acu-Link.com,2013-06-12 05:57:00,
2013-06-12 01:12:00,81.1,80.8,29.84,SSW,202,1.7,-999.0,99,-99.99,,,0.00,Acu-Link.com,2013-06-12 06:12:00,
2013-06-12 01:27:00,81.5,81.2,29.84,WSW,247,2.7,-999.0,99,-99.99,,,0.00,Acu-Link.com,2013-06-12 06:27:00,
2013-06-12 01:42:00,82.0,81.7,29.84,SSW,202,2.7,-999.0,99,-99.99,,,0.00,Acu-Link.com,2013-06-12 06:42:00,
2013-06-12 01:57:00,82.0,81.7,29.84,SW,225,2.7,-999.0,99,-99.99,,,0.00,Acu-Link.com,2013-06-12 06:57:00,
2013-06-12 02:12:00,82.0,81.7,29.83,West,270,2.7,-999.0,99,-99.99,,,0.00,Acu-Link.com,2013-06-12 07:12:00,
2013-06-12 02:27:00,82.0,81.7,29.83,WSW,247,2.7,-999.0,99,-99.99,,,0.00,Acu-Link.com,2013-06-12 07:27:00,
2013-06-12 02:42:00,81.7,81.4,29.84,SE,135,4.2,-999.0,99,-99.99,,,0.00,Acu-Link.com,2013-06-12 07:42:00,
2013-06-12 02:57:00,81.1,80.8,29.84,SW,225,1.1,-999.0,99,-99.99,,,0.00,Acu-Link.com,2013-06-12 07:57:00,
2013-06-12 03:14:00,80.8,80.5,29.84,SW,225,2.2,-999.0,99,-99.99,,,0.00,Acu-Link.com,2013-06-12 08:14:00,
2013-06-12 03:29:00,80.4,80.1,29.84,SSW,202,2.2,-999.0,99,-99.99,,,0.00,Acu-Link.com,2013-06-12 08:29:00,
2013-06-12 03:44:00,79.5,79.2,29.85,South,180,1.1,-999.0,99,-99.99,,,0.00,Acu-Link.com,2013-06-12 08:44:00,
2013-06-12 03:59:00,78.4,78.1,29.85,SSW,202,1.1,-999.0,99,-99.99,,,0.00,Acu-Link.com,2013-06-12 08:59:00,
2013-06-12 04:15:00,77.7,77.4,29.85,SSW,202,0.0,-999.0,99,-99.99,,,0.00,Acu-Link.com,2013-06-12 09:15:00,
2013-06-12 04:30:00,77.5,77.2,29.86,WNW,292,0.0,-999.0,99,-99.99,,,0.00,Acu-Link.com,2013-06-12 09:30:00,
2013-06-12 04:45:00,77.2,76.9,29.85,SSW,202,0.0,-999.0,99,-99.99,,,0.00,Acu-Link.com,2013-06-12 09:45:00,
2013-06-12 05:00:00,76.6,76.3,29.86,SSW,202,0.0,-999.0,99,-99.99,,,0.00,Acu-Link.com,2013-06-12 10:00:00,
2013-06-12 05:15:00,76.1,75.8,29.86,South,180,0.0,-999.0,99,-99.99,,,0.00,Acu-Link.com,2013-06-12 10:15:00,
2013-06-12 05:30:00,75.7,75.4,29.87,South,180,0.0,-999.0,99,-99.99,,,0.00,Acu-Link.com,2013-06-12 10:30:00,
2013-06-12 05:45:00,75.6,75.3,29.87,South,180,0.0,-999.0,99,-99.99,,,0.00,Acu-Link.com,2013-06-12 10:45:00,
2013-06-12 06:00:00,75.0,74.7,29.87,South,180,0.0,-999.0,99,-99.99,,,0.00,Acu-Link.com,2013-06-12 11:00:00,
2013-06-12 06:15:00,74.8,74.5,29.88,South,180,0.0,-999.0,99,-99.99,,,0.00,Acu-Link.com,2013-06-12 11:15:00,
2013-06-12 06:30:00,75.0,74.7,29.89,South,180,0.0,-999.0,99,-99.99,,,0.00,Acu-Link.com,2013-06-12 11:30:00,
2013-06-12 06:46:00,75.9,75.6,29.89,SW,225,0.0,-999.0,99,-99.99,,,0.00,Acu-Link.com,2013-06-12 11:46:00,
2013-06-12 07:01:00,79.0,78.7,29.90,SSW,202,2.2,-999.0,99,-99.99,,,0.00,Acu-Link.com,2013-06-12 12:01:00,
2013-06-12 07:16:00,80.6,80.3,29.89,SSW,202,3.2,-999.0,99,-99.99,,,0.00,Acu-Link.com,2013-06-12 12:16:00,
2013-06-12 07:31:00,80.8,80.5,29.90,SSW,202,1.1,-999.0,99,-99.99,,,0.00,Acu-Link.com,2013-06-12 12:31:00,
2013-06-12 07:46:00,81.3,81.0,29.91,South,180,4.2,-999.0,99,-99.99,,,0.00,Acu-Link.com,2013-06-12 12:46:00,
2013-06-12 08:01:00,84.4,84.1,29.92,South,180,1.1,-999.0,99,-99.99,,,0.00,Acu-Link.com,2013-06-12 13:01:00,
2013-06-12 08:16:00,87.4,84.1,29.92,WSW,247,5.8,-999.0,90,-99.99,,,0.00,Acu-Link.com,2013-06-12 13:16:00,
2013-06-12 08:31:00,85.1,83.8,29.93,SW,225,0.0,-999.0,96,-99.99,,,0.00,Acu-Link.com,2013-06-12 13:31:00,
2013-06-12 08:46:00,83.5,83.2,29.93,WSW,247,1.7,-999.0,99,-99.99,,,0.00,Acu-Link.com,2013-06-12 13:46:00,
2013-06-12 09:02:00,84.4,84.1,29.93,WNW,292,3.7,-999.0,99,-99.99,,,0.00,Acu-Link.com,2013-06-12 14:02:00,
2013-06-12 09:17:00,85.3,84.7,29.92,WSW,247,2.2,-999.0,98,-99.99,,,0.00,Acu-Link.com,2013-06-12 14:17:00,
2013-06-12 09:32:00,86.0,84.7,29.92,SW,225,0.0,-999.0,96,-99.99,,,0.00,Acu-Link.com,2013-06-12 14:32:00,
2013-06-12 09:47:00,87.8,84.5,29.92,SSW,202,2.2,-999.0,90,-99.99,,,0.00,Acu-Link.com,2013-06-12 14:47:00,
2013-06-12 10:02:00,88.3,82.8,29.92,NW,315,4.7,-999.0,84,-99.99,,,0.00,Acu-Link.com,2013-06-12 15:02:00,
2013-06-12 10:17:00,89.8,83.2,29.91,South,180,2.2,-999.0,81,-99.99,,,0.00,Acu-Link.com,2013-06-12 15:17:00,
2013-06-12 10:32:00,90.3,82.9,29.91,West,270,2.7,-999.0,79,-99.99,,,0.00,Acu-Link.com,2013-06-12 15:32:00,
2013-06-12 10:47:00,91.6,82.9,29.90,SSW,202,2.2,-999.0,76,-99.99,,,0.00,Acu-Link.com,2013-06-12 15:47:00,
2013-06-12 11:02:00,92.1,83.4,29.89,SW,225,3.7,-999.0,76,-99.99,,,0.00,Acu-Link.com,2013-06-12 16:02:00,
2013-06-12 11:18:00,92.5,82.1,29.88,WNW,292,5.3,-999.0,72,-99.99,,,0.00,Acu-Link.com,2013-06-12 16:18:00,
2013-06-12 11:33:00,93.2,82.4,29.88,WSW,247,4.7,-999.0,71,-99.99,,,0.00,Acu-Link.com,2013-06-12 16:33:00,
2013-06-12 11:48:00,93.9,82.1,29.87,WSW,247,2.2,-999.0,69,-99.99,,,0.00,Acu-Link.com,2013-06-12 16:48:00,
2013-06-12 12:03:00,93.4,80.8,29.86,South,180,4.7,-999.0,67,-99.99,,,0.00,Acu-Link.com,2013-06-12 17:03:00,
2013-06-12 12:18:00,94.5,81.3,29.86,SSE,157,3.7,-999.0,66,-99.99,,,0.00,Acu-Link.com,2013-06-12 17:18:00,
2013-06-12 12:33:00,94.5,81.8,29.85,SW,225,4.7,-999.0,67,-99.99,,,0.00,Acu-Link.com,2013-06-12 17:33:00,
2013-06-12 12:48:00,95.0,79.9,29.84,WSW,247,4.7,-999.0,62,-99.99,,,0.00,Acu-Link.com,2013-06-12 17:48:00,
2013-06-12 13:03:00,95.9,80.7,29.83,South,180,5.8,-999.0,62,-99.99,,,0.00,Acu-Link.com,2013-06-12 18:03:00,
2013-06-12 13:18:00,96.3,80.1,29.83,SSW,202,2.7,-999.0,60,-99.99,,,0.00,Acu-Link.com,2013-06-12 18:18:00,
2013-06-12 13:34:00,96.3,78.5,29.82,SSW,202,3.2,-999.0,57,-99.99,,,0.00,Acu-Link.com,2013-06-12 18:34:00,
2013-06-12 13:49:00,97.3,79.5,29.81,SSW,202,5.8,-999.0,57,-99.99,,,0.00,Acu-Link.com,2013-06-12 18:49:00,
2013-06-12 14:04:00,96.4,78.6,29.81,SSW,202,4.2,-999.0,57,-99.99,,,0.00,Acu-Link.com,2013-06-12 19:04:00,
2013-06-12 14:19:00,96.8,78.5,29.80,South,180,3.2,-999.0,56,-99.99,,,0.00,Acu-Link.com,2013-06-12 19:19:00,
2013-06-12 14:34:00,96.3,78.5,29.79,SSW,202,4.2,-999.0,57,-99.99,,,0.00,Acu-Link.com,2013-06-12 19:34:00,
2013-06-12 14:49:00,97.0,79.7,29.77,South,180,3.2,-999.0,58,-99.99,,,0.00,Acu-Link.com,2013-06-12 19:49:00,
2013-06-12 15:04:00,96.4,77.5,29.77,SSW,202,9.9,-999.0,55,-99.99,,,0.00,Acu-Link.com,2013-06-12 20:04:00,
2013-06-12 15:19:00,96.4,78.6,29.75,South,180,5.3,-999.0,57,-99.99,,,0.00,Acu-Link.com,2013-06-12 20:19:00,
2013-06-12 15:34:00,96.1,78.4,29.75,SSW,202,5.3,-999.0,57,-99.99,,,0.00,Acu-Link.com,2013-06-12 20:34:00,
2013-06-12 15:50:00,96.6,77.7,29.75,North,0,9.4,-999.0,55,-99.99,,,0.00,Acu-Link.com,2013-06-12 20:50:00,
2013-06-12 16:05:00,96.1,78.4,29.74,West,270,6.3,-999.0,57,-99.99,,,0.00,Acu-Link.com,2013-06-12 21:05:00,
2013-06-12 16:20:00,95.9,78.7,29.74,WSW,247,4.2,-999.0,58,-99.99,,,0.00,Acu-Link.com,2013-06-12 21:20:00,
2013-06-12 16:35:00,95.9,78.2,29.74,West,270,6.8,-999.0,57,-99.99,,,0.00,Acu-Link.com,2013-06-12 21:35:00,
2013-06-12 16:50:00,95.5,77.8,29.73,South,180,4.2,-999.0,57,-99.99,,,0.00,Acu-Link.com,2013-06-12 21:50:00,
2013-06-12 17:05:00,95.4,78.2,29.73,SSW,202,6.3,-999.0,58,-99.99,,,0.00,Acu-Link.com,2013-06-12 22:05:00,
2013-06-12 17:20:00,95.9,78.7,29.73,SW,225,3.2,-999.0,58,-99.99,,,0.00,Acu-Link.com,2013-06-12 22:20:00,
2013-06-12 17:35:00,95.7,79.0,29.72,SW,225,4.7,-999.0,59,-99.99,,,0.00,Acu-Link.com,2013-06-12 22:35:00,
2013-06-12 17:50:00,96.8,79.0,29.72,West,270,8.9,-999.0,57,-99.99,,,0.00,Acu-Link.com,2013-06-12 22:50:00,
2013-06-12 18:06:00,96.4,78.1,29.72,SW,225,3.2,-999.0,56,-99.99,,,0.00,Acu-Link.com,2013-06-12 23:06:00,
2013-06-12 18:21:00,94.3,77.7,29.72,South,180,3.2,-999.0,59,-99.99,,,0.00,Acu-Link.com,2013-06-12 23:21:00,
2013-06-12 18:36:00,92.7,77.7,29.73,SW,225,5.3,-999.0,62,-99.99,,,0.00,Acu-Link.com,2013-06-12 23:36:00,
2013-06-12 18:51:00,91.6,77.2,29.73,SSW,202,3.2,-999.0,63,-99.99,,,0.00,Acu-Link.com,2013-06-12 23:51:00,
2013-06-12 19:06:00,91.2,77.3,29.73,WSW,247,2.7,-999.0,64,-99.99,,,0.00,Acu-Link.com,2013-06-13 00:06:00,
2013-06-12 19:21:00,90.3,77.4,29.73,WSW,247,2.2,-999.0,66,-99.99,,,0.00,Acu-Link.com,2013-06-13 00:21:00,
2013-06-12 19:36:00,89.8,77.8,29.73,WSW,247,2.7,-999.0,68,-99.99,,,0.00,Acu-Link.com,2013-06-13 00:36:00,
2013-06-12 19:51:00,88.9,78.2,29.72,WSW,247,3.2,-999.0,71,-99.99,,,0.00,Acu-Link.com,2013-06-13 00:51:00,
2013-06-12 20:06:00,87.8,78.5,29.72,South,180,1.7,-999.0,74,-99.99,,,0.00,Acu-Link.com,2013-06-13 01:06:00,
2013-06-12 20:22:00,87.1,79.4,29.72,West,270,3.2,-999.0,78,-99.99,,,0.00,Acu-Link.com,2013-06-13 01:22:00,
2013-06-12 20:37:00,86.2,79.7,29.72,SSW,202,1.7,-999.0,81,-99.99,,,0.00,Acu-Link.com,2013-06-13 01:37:00,
2013-06-12 20:52:00,85.3,79.9,29.73,SW,225,1.7,-999.0,84,-99.99,,,0.00,Acu-Link.com,2013-06-13 01:52:00,
2013-06-12 21:07:00,84.7,81.1,29.72,ENE,67,3.2,-999.0,89,-99.99,,,0.00,Acu-Link.com,2013-06-13 02:07:00,
2013-06-12 21:22:00,84.6,81.3,29.73,SW,225,2.2,-999.0,90,-99.99,,,0.00,Acu-Link.com,2013-06-13 02:22:00,
2013-06-12 21:37:00,84.2,81.6,29.72,South,180,2.2,-999.0,92,-99.99,,,0.00,Acu-Link.com,2013-06-13 02:37:00,
2013-06-12 21:52:00,84.0,83.1,29.72,SSW,202,2.2,-999.0,97,-99.99,,,0.00,Acu-Link.com,2013-06-13 02:52:00,
2013-06-12 22:07:00,83.7,83.4,29.72,South,180,3.2,-999.0,99,-99.99,,,0.00,Acu-Link.com,2013-06-13 03:07:00,
2013-06-12 22:22:00,84.2,82.6,29.72,WSW,247,5.8,-999.0,95,-99.99,,,0.00,Acu-Link.com,2013-06-13 03:22:00,
2013-06-12 22:37:00,84.7,82.4,29.72,WSW,247,5.3,-999.0,93,-99.99,,,0.00,Acu-Link.com,2013-06-13 03:37:00,
2013-06-12 22:53:00,84.9,82.0,29.72,ESE,112,4.7,-999.0,91,-99.99,,,0.00,Acu-Link.com,2013-06-13 03:53:00,
2013-06-12 23:08:00,85.3,81.7,29.72,WSW,247,4.7,-999.0,89,-99.99,,,0.00,Acu-Link.com,2013-06-13 04:08:00,
2013-06-12 23:23:00,85.5,80.8,29.72,SSW,202,4.2,-999.0,86,-99.99,,,0.00,Acu-Link.com,2013-06-13 04:23:00,
2013-06-12 23:38:00,85.6,80.6,29.71,SE,135,11.4,-999.0,85,-99.99,,,0.00,Acu-Link.com,2013-06-13 04:38:00,
2013-06-12 23:53:00,85.8,80.8,29.72,SSW,202,6.3,-999.0,85,-99.99,,,0.00,Acu-Link.com,2013-06-13 04:53:00,